Location: Lecco
(45.8566°N, 9.3977°E)
Time: 14:59:25
(UTC+02:00)

Vanguard 3 - Visible Passes

Search period start: 18 August 2019 00:00
Search period end: 28 August 2019 00:00
Orbit: 508 x 3263 km, 33.3° (Epoch: 16 August)

Date Brightness Start Highest point End Pass type
(mag) Time Alt. Az. Time Alt. Az. Time Alt. Az.
18 Aug 8.3 21:20:33 10° SSW 21:22:37 14° S 21:24:23 11° SSE visible
19 Aug 8.5 22:18:17 10° SW 22:19:09 12° SSW 22:19:09 12° SSW visible
20 Aug 8.4 21:04:07 10° SW 21:06:39 15° S 21:08:54 10° SSE visible
21 Aug 8.5 22:02:24 10° SW 22:03:56 12° SSW 22:04:05 12° S visible
22 Aug 8.5 20:47:38 10° SW 20:50:41 16° S 20:53:15 10° SSE visible
23 Aug 8.6 21:46:23 10° SW 21:47:54 12° SSW 21:49:00 11° S visible
25 Aug 8.7 21:30:15 10° SW 21:31:50 12° SSW 21:33:17 10° S visible
27 Aug 9.0 21:14:00 10° SW 21:15:43 12° SSW 21:17:16 10° S visible
